[[{"header":{"parameterUnit":"m.s-1","parameterCategory":2,"la1":30.2992,"la2":30.254,"lo1":-89.0895,"lo2":-89.0443,"dy":0.0025,"dx":0.0025,"nx":19,"ny":19,"refTime":"2026-04-24T21:00:00:Z","depth":"0","parameterNumber":2,"parameterNumberName":"U-component_of_CURRENTS"},"data":[0,0,0,-0.1628,-0.1631,-0.173,-0.173,-0.1682,-0.1682,0,0,0,0,0,0,0,0,0,0,0,-0.1564,-0.1565,-0.1628,-0.1632,-0.173,-0.173,-0.1682,-0.1682,0,0,0,0,0,0,0,0,0,0,0,-0.1564,-0.1565,-0.1566,-0.1632,-0.173,-0.173,-0.1683,-0.1642,0,0,0,0,0,0,0,0,0,0,-0.1564,-0.1477,-0.1565,-0.1566,-0.1633,-0.173,-0.173,-0.1642,-0.1645,-0.16,0,-0.1627,0,-0.168,-0.1678,-0.1678,0,0,0,-0.1594,-0.1474,-0.1581,-0.1566,-0.1635,-0.173,-0.1675,-0.1645,-0.1648,-0.1603,-0.1627,-0.1628,-0.1679,-0.1678,-0.1678,-0.1661,-0.1661,0,0,-0.1589,-0.1498,-0.158,-0.1584,-0.1673,-0.1672,-0.1679,-0.1648,-0.1604,-0.1627,-0.1628,-0.1678,-0.1677,-0.1677,-0.1661,-0.1661,0,0,0,-0.1598,-0.1493,-0.1602,-0.1583,-0.1631,-0.1676,-0.1683,-0.1603,-0.1664,-0.1628,-0.1678,-0.1677,-0.1676,-0.1661,-0.1661,-0.1682,0,0,0,-0.1593,-0.1505,-0.1599,-0.1535,-0.1633,-0.1627,-0.1638,-0.1664,-0.1665,-0.1678,-0.1677,-0.1676,-0.166,-0.1661,-0.1681,-0.1686,0,0,0,-0.1558,-0.1498,-0.1534,-0.1532,-0.1606,-0.1631,-0.1684,-0.1666,-0.1696,-0.1678,-0.1676,-0.166,-0.1661,-0.168,-0.1685,-0.1697,0,0,0,-0.1431,-0.1417,-0.153,-0.155,-0.1606,-0.1697,-0.1685,-0.1698,-0.1683,-0.1677,-0.166,-0.1661,-0.1679,-0.1684,-0.1696,-0.1691,-0.1695,0,0,-0.1348,-0.1402,-0.1437,-0.1545,-0.1647,-0.168,-0.171,-0.1684,-0.1676,-0.1651,-0.1652,-0.1681,-0.1684,-0.1696,-0.1723,-0.1726,0,0,0,-0.1373,-0.1401,-0.1449,-0.1548,-0.1652,-0.1705,-0.1708,-0.1712,-0.1704,-0.1682,-0.1687,-0.1688,-0.1695,-0.169,-0.1693,-0.1696,-0.1664,-0.1664,-0.1663,-0.116,-0.1318,-0.1371,-0.1553,-0.161,-0.1704,-0.1725,-0.1729,-0.171,-0.1719,-0.1709,-0.1738,-0.1734,-0.1736,-0.174,-0.1716,-0.1716,-0.1716,-0.1717,-0.1101,-0.1195,-0.1344,-0.1444,-0.1585,-0.1623,-0.1727,-0.1738,-0.1756,-0.1741,-0.1747,-0.1718,-0.174,-0.1743,-0.1718,-0.1718,-0.1718,-0.1717,-0.1717,-0.1033,-0.1099,-0.116,-0.1313,-0.1447,-0.1591,-0.17,-0.1749,-0.1766,-0.1778,-0.1764,-0.1764,-0.1762,-0.1777,-0.1777,-0.1777,-0.1777,-0.1777,-0.1777,-0.0951,-0.1022,-0.1045,-0.1203,-0.1318,-0.1487,-0.1675,-0.1733,-0.1779,-0.1785,-0.1785,-0.1775,-0.1756,-0.1749,-0.1778,-0.1778,-0.1778,-0.1778,-0.1778,-0.0975,-0.0911,-0.0951,-0.1021,-0.1281,-0.1462,-0.1628,-0.1761,-0.1789,-0.1799,-0.1802,-0.1791,-0.1782,-0.178,-0.1773,-0.1807,-0.1807,-0.1807,-0.1807,-0.0937,-0.0925,-0.0918,-0.1014,-0.1221,-0.1466,-0.1633,-0.1765,-0.1817,-0.1827,-0.1817,-0.1805,-0.1803,-0.1795,-0.1792,-0.1785,-0.1822,-0.1822,-0.1822,-0.0951,-0.0916,-0.0917,-0.0968,-0.1227,-0.1473,-0.1655,-0.1758,-0.18,-0.1823,-0.1825,-0.1825,-0.1806,-0.1804,-0.1789,-0.1785,-0.1772,0,0]},{"header":{"parameterUnit":"m.s-1","parameterCategory":2,"la1":30.2992,"la2":30.254,"lo1":-89.0895,"lo2":-89.0443,"dy":0.0025,"dx":0.0025,"nx":19,"ny":19,"refTime":"2026-04-24T21:00:00:Z","depth":"0","parameterNumber":3,"parameterNumberName":"V-component_of_CURRENTS"},"data":[0,0,0,-0.0838,-0.0833,-0.0671,-0.0671,-0.0723,-0.0724,0,0,0,0,0,0,0,0,0,0,0,-0.0919,-0.0917,-0.0839,-0.0833,-0.0671,-0.0671,-0.0723,-0.0724,0,0,0,0,0,0,0,0,0,0,0,-0.092,-0.0918,-0.0916,-0.0832,-0.0671,-0.0671,-0.0723,-0.0791,0,0,0,0,0,0,0,0,0,0,-0.0921,-0.1013,-0.0918,-0.0916,-0.0831,-0.0671,-0.0671,-0.0792,-0.0787,-0.0857,0,-0.0806,0,-0.0741,-0.0729,-0.0729,0,0,0,-0.0877,-0.1018,-0.0889,-0.0915,-0.0829,-0.0671,-0.0757,-0.0788,-0.0782,-0.0851,-0.0806,-0.0805,-0.0741,-0.073,-0.073,-0.0844,-0.0845,0,0,-0.0886,-0.0984,-0.0891,-0.0884,-0.0759,-0.0762,-0.0751,-0.0782,-0.0822,-0.0806,-0.0805,-0.0742,-0.073,-0.0731,-0.0843,-0.0844,0,0,0,-0.0882,-0.0991,-0.0859,-0.0885,-0.082,-0.0756,-0.0744,-0.0823,-0.0752,-0.0804,-0.0743,-0.0731,-0.0732,-0.0843,-0.0844,-0.0881,0,0,0,-0.089,-0.0982,-0.0863,-0.0933,-0.0816,-0.08,-0.0786,-0.0751,-0.075,-0.0743,-0.0731,-0.0732,-0.0842,-0.0843,-0.0878,-0.0882,0,0,0,-0.0931,-0.099,-0.0941,-0.0936,-0.0831,-0.0795,-0.0732,-0.0749,-0.0713,-0.073,-0.0733,-0.0841,-0.0843,-0.0876,-0.0879,-0.0891,0,0,0,-0.1078,-0.1057,-0.0945,-0.0896,-0.0832,-0.0743,-0.0731,-0.0715,-0.0731,-0.0731,-0.0842,-0.0843,-0.0875,-0.0877,-0.0889,-0.0945,-0.0957,0,0,-0.1128,-0.1068,-0.1021,-0.0912,-0.081,-0.077,-0.0785,-0.079,-0.0786,-0.0856,-0.0857,-0.0879,-0.0879,-0.089,-0.1035,-0.1044,0,0,0,-0.1084,-0.1051,-0.1003,-0.0904,-0.0805,-0.0798,-0.0789,-0.0808,-0.0851,-0.0786,-0.0901,-0.0899,-0.0905,-0.0936,-0.0945,-0.0939,-0.0851,-0.0851,-0.085,-0.1324,-0.1156,-0.1093,-0.0916,-0.0883,-0.0846,-0.0867,-0.0902,-0.0901,-0.0929,-0.0946,-0.1002,-0.1038,-0.1044,-0.1039,-0.0972,-0.0972,-0.0972,-0.0972,-0.1376,-0.1295,-0.1142,-0.1022,-0.0946,-0.0958,-0.0964,-0.097,-0.1025,-0.1009,-0.1013,-0.0995,-0.1056,-0.1047,-0.0975,-0.0974,-0.0974,-0.0974,-0.0974,-0.1513,-0.1442,-0.1342,-0.1169,-0.1086,-0.1012,-0.1015,-0.1035,-0.1048,-0.1066,-0.1084,-0.1084,-0.1059,-0.1065,-0.1065,-0.1065,-0.1065,-0.1065,-0.1065,-0.1686,-0.1569,-0.1491,-0.1302,-0.1192,-0.11,-0.1051,-0.1069,-0.111,-0.1126,-0.1126,-0.1093,-0.103,-0.1006,-0.1066,-0.1066,-0.1066,-0.1066,-0.1066,-0.1743,-0.1745,-0.1622,-0.1517,-0.1259,-0.1195,-0.1125,-0.1157,-0.1178,-0.1211,-0.1199,-0.1159,-0.1146,-0.1139,-0.1119,-0.1205,-0.1205,-0.1205,-0.1205,-0.1834,-0.1806,-0.168,-0.153,-0.1371,-0.1229,-0.1267,-0.1282,-0.1294,-0.1305,-0.1253,-0.1253,-0.1247,-0.1238,-0.123,-0.121,-0.1317,-0.1317,-0.1317,-0.1841,-0.1802,-0.173,-0.1576,-0.1375,-0.1294,-0.134,-0.138,-0.1378,-0.1318,-0.1235,-0.123,-0.1223,-0.1215,-0.1192,-0.1181,-0.1145,0,0]}],[{"header":{"parameterUnit":"m.s-1","parameterCategory":2,"la1":30.2992,"la2":30.254,"lo1":-89.0895,"lo2":-89.0443,"dy":0.0025,"dx":0.0025,"nx":19,"ny":19,"refTime":"2026-04-24T21:00:00:Z","depth":"2","parameterNumber":2,"parameterNumberName":"U-component_of_CURRENTS"},"data":[0,0,0,-0.0661,-0.0657,-0.043,-0.0429,-0.0203,-0.0201,0,0,0,0,0,0,0,0,0,0,0,-0.0755,-0.0754,-0.0662,-0.0657,-0.043,-0.0429,-0.0203,-0.0201,0,0,0,0,0,0,0,0,0,0,0,-0.0755,-0.0755,-0.0754,-0.0656,-0.043,-0.0429,-0.0203,-0.0353,0,0,0,0,0,0,0,0,0,0,-0.0563,-0.0633,-0.0755,-0.0754,-0.0655,-0.0431,-0.0429,-0.0359,-0.0343,-0.0332,0,-0.0321,0,-0.0262,-0.019,-0.0189,0,0,0,-0.0631,-0.0646,-0.0603,-0.0754,-0.0653,-0.0431,-0.0525,-0.0349,-0.0332,-0.0312,-0.0317,-0.0307,-0.0258,-0.0189,-0.0188,-0.015,-0.0151,0,0,-0.0644,-0.0687,-0.0616,-0.0594,-0.0626,-0.0533,-0.0519,-0.0338,-0.0325,-0.0316,-0.0301,-0.0254,-0.0188,-0.0186,-0.0149,-0.015,0,0,0,-0.0697,-0.0696,-0.0655,-0.0604,-0.0561,-0.0527,-0.051,-0.0332,-0.0324,-0.0298,-0.0251,-0.0187,-0.0185,-0.0148,-0.015,-0.0221,0,0,0,-0.0703,-0.0729,-0.0662,-0.0681,-0.0565,-0.043,-0.0509,-0.0337,-0.0314,-0.0253,-0.0187,-0.0183,-0.0147,-0.0149,-0.0217,-0.0247,0,0,0,-0.076,-0.0733,-0.0722,-0.0685,-0.0597,-0.0431,-0.041,-0.033,-0.0287,-0.0189,-0.0183,-0.0147,-0.0149,-0.0213,-0.0241,-0.0326,0,0,0,-0.079,-0.077,-0.0723,-0.0677,-0.06,-0.0475,-0.041,-0.0304,-0.0227,-0.0186,-0.0148,-0.015,-0.0212,-0.0237,-0.0322,-0.0345,-0.0367,0,0,-0.0782,-0.077,-0.0742,-0.0694,-0.0578,-0.0502,-0.042,-0.0304,-0.0261,-0.0204,-0.0202,-0.0218,-0.024,-0.0325,-0.0462,-0.048,0,0,0,-0.0749,-0.0723,-0.0681,-0.0602,-0.0514,-0.0447,-0.0332,-0.0336,-0.0301,-0.0228,-0.0239,-0.0252,-0.0303,-0.0308,-0.0324,-0.0159,-0.0159,-0.0159,-0.0159,-0.0718,-0.0679,-0.061,-0.0544,-0.0487,-0.0406,-0.0399,-0.0392,-0.0323,-0.0365,-0.0326,-0.0459,-0.0466,-0.0478,-0.0344,-0.0344,-0.0345,-0.0345,-0.0345,-0.0647,-0.0601,-0.0568,-0.0511,-0.0479,-0.0433,-0.0443,-0.045,-0.0506,-0.0438,-0.0484,-0.0402,-0.0498,-0.0351,-0.035,-0.0349,-0.0348,-0.0348,-0.0348,-0.0585,-0.0574,-0.0562,-0.0516,-0.0499,-0.0471,-0.0525,-0.0537,-0.057,-0.0614,-0.0619,-0.0618,-0.0503,-0.0632,-0.0632,-0.0633,-0.0633,-0.0634,-0.0634,-0.0546,-0.0533,-0.0546,-0.0517,-0.0531,-0.0541,-0.0577,-0.0631,-0.0695,-0.071,-0.071,-0.0556,-0.0547,-0.0521,-0.0642,-0.0641,-0.064,-0.0639,-0.0638,-0.0495,-0.0514,-0.0538,-0.0566,-0.0606,-0.0639,-0.0664,-0.0766,-0.0831,-0.0881,-0.0783,-0.0777,-0.0761,-0.0748,-0.0727,-0.0895,-0.0895,-0.0895,-0.0895,-0.0473,-0.0473,-0.0547,-0.0619,-0.0672,-0.0695,-0.0782,-0.0806,-0.0856,-0.0822,-0.0824,-0.0741,-0.0734,-0.071,-0.0697,-0.0672,-0.0826,-0.0825,-0.0825,-0.045,-0.0483,-0.0542,-0.0627,-0.0707,-0.0767,-0.0818,-0.0732,-0.0655,-0.0814,-0.0732,-0.0906,-0.0787,-0.0774,-0.0734,-0.0716,-0.0674,0,0]},{"header":{"parameterUnit":"m.s-1","parameterCategory":2,"la1":30.2992,"la2":30.254,"lo1":-89.0895,"lo2":-89.0443,"dy":0.0025,"dx":0.0025,"nx":19,"ny":19,"refTime":"2026-04-24T21:00:00:Z","depth":"2","parameterNumber":3,"parameterNumberName":"V-component_of_CURRENTS"},"data":[0,0,0,0.0007,0.0007,0.0063,0.0063,0.0226,0.0227,0,0,0,0,0,0,0,0,0,0,0,-0.0026,-0.0027,0.0007,0.0007,0.0063,0.0063,0.0226,0.0227,0,0,0,0,0,0,0,0,0,0,0,-0.0026,-0.0027,-0.0027,0.0007,0.0063,0.0063,0.0225,0.0165,0,0,0,0,0,0,0,0,0,0,0.0102,0.0072,-0.0026,-0.0027,0.0007,0.0063,0.0063,0.0162,0.0169,0.022,0,0.0201,0,0.0218,0.0238,0.0239,0,0,0,0.0027,0.0065,0.0058,-0.0027,0.0008,0.0062,0.0043,0.0165,0.0174,0.0231,0.0204,0.021,0.022,0.024,0.024,0.0392,0.0393,0,0,0.0024,0.0017,0.0051,0.0062,-0.0011,0.0041,0.0045,0.017,0.018,0.0204,0.0213,0.0223,0.0241,0.0242,0.0392,0.0393,0,0,0,0.0002,0.0015,0.0004,0.0056,0.0058,0.0043,0.0047,0.0175,0.0163,0.0215,0.0225,0.0242,0.0244,0.0392,0.0392,0.027,0,0,0,0.0001,-0.0,0.0002,0.0003,0.0054,0.011,0.0049,0.0154,0.0169,0.0224,0.0242,0.0245,0.0391,0.0392,0.0272,0.0212,0,0,0,-0.0023,-0.0,-0.0011,0.0002,0.0015,0.0108,0.0106,0.0157,0.0175,0.0239,0.0246,0.0391,0.0392,0.0274,0.0217,0.0213,0,0,0,-0.0007,-0.0016,-0.0012,-0.001,0.0014,0.0081,0.0105,0.0157,0.0206,0.0242,0.0391,0.0392,0.0275,0.022,0.0215,0.0217,0.0206,0,0,-0.0007,-0.0016,-0.0015,-0.001,0.0038,0.0077,0.0134,0.0185,0.0245,0.0359,0.0362,0.0271,0.0217,0.0213,0.0275,0.0262,0,0,0,-0.0006,-0.0006,0.0014,0.0031,0.0078,0.0102,0.0176,0.0206,0.0257,0.0275,0.0327,0.0298,0.0298,0.0307,0.0297,0.0397,0.0397,0.0397,0.0397,0.007,0.0048,0.0055,0.0045,0.0076,0.0135,0.0153,0.021,0.027,0.0268,0.0238,0.0206,0.0216,0.0209,0.0291,0.0291,0.029,0.029,0.029,0.0101,0.0082,0.0051,0.0024,0.0026,0.0049,0.011,0.0122,0.0164,0.0207,0.0213,0.0228,0.019,0.0281,0.0283,0.0284,0.0285,0.0286,0.0286,0.0163,0.0125,0.0073,-0.0008,-0.0063,-0.0061,-0.0075,-0.0026,0.0047,0.0037,0.0094,0.0097,0.0113,0.004,0.004,0.004,0.004,0.0039,0.0039,0.0215,0.0155,0.0059,-0.0042,-0.014,-0.0204,-0.019,-0.0151,-0.0085,-0.0024,-0.0023,0.0124,0.0132,0.0103,0.0035,0.0035,0.0036,0.0036,0.0037,0.0224,0.0186,0.004,-0.007,-0.0264,-0.0291,-0.0269,-0.0193,-0.0156,-0.0117,-0.0025,-0.0022,0.0026,0.0036,0.0008,-0.008,-0.008,-0.008,-0.008,0.0237,0.0213,-0.0017,-0.0197,-0.0325,-0.034,-0.0213,0.0011,0.0079,0.0193,0.0183,0.025,0.0246,0.0313,0.0317,0.0298,0.0285,0.0286,0.0288,0.0223,0.015,-0.0022,-0.0216,-0.0385,-0.035,-0.0131,0.0324,0.055,0.0315,0.0386,-0.0083,-0.0014,-0.0008,0.0076,0.0089,0.0052,0,0]}],[{"header":{"parameterUnit":"m.s-1","parameterCategory":2,"la1":30.2992,"la2":30.254,"lo1":-89.0895,"lo2":-89.0443,"dy":0.0025,"dx":0.0025,"nx":19,"ny":19,"refTime":"2026-04-24T21:00:00:Z","depth":"4","parameterNumber":2,"parameterNumberName":"U-component_of_CURRENTS"},"data":[0,0,0,0.037,0.0365,0.0036,0.0034,-0.0321,-0.0323,0,0,0,0,0,0,0,0,0,0,0,0.0513,0.0512,0.037,0.0364,0.0036,0.0034,-0.0321,-0.0323,0,0,0,0,0,0,0,0,0,0,0,0.0513,0.0512,0.0512,0.0363,0.0037,0.0034,-0.032,-0.0103,0,0,0,0,0,0,0,0,0,0,0.0202,0.0325,0.0513,0.0512,0.0362,0.0037,0.0034,-0.0094,-0.0116,-0.0135,0,-0.0126,0,-0.0217,-0.034,-0.0341,0,0,0,0.0304,0.0344,0.0285,0.0512,0.036,0.0038,0.0167,-0.0108,-0.0133,-0.0164,-0.0132,-0.0147,-0.0223,-0.0342,-0.0343,-0.0384,-0.0383,0,0,0.0322,0.0404,0.0303,0.0272,0.0353,0.0178,0.0158,-0.0124,-0.0131,-0.0133,-0.0157,-0.0229,-0.0343,-0.0345,-0.0385,-0.0384,0,0,0,0.0415,0.0418,0.0361,0.0288,0.0232,0.017,0.0146,-0.0121,-0.0128,-0.0161,-0.0233,-0.0345,-0.0348,-0.0387,-0.0385,-0.032,0,0,0,0.0423,0.0476,0.0372,0.0409,0.0239,0.0037,0.0158,-0.0109,-0.0145,-0.0231,-0.0345,-0.035,-0.0389,-0.0386,-0.0325,-0.0322,0,0,0,0.0513,0.0482,0.0476,0.0416,0.03,0.0039,0.0008,-0.0121,-0.0185,-0.0341,-0.0351,-0.039,-0.0386,-0.0329,-0.0328,-0.0234,0,0,0,0.056,0.0545,0.048,0.0427,0.0304,0.0113,0.0009,-0.0164,-0.0289,-0.0346,-0.0388,-0.0385,-0.0331,-0.0332,-0.0239,-0.0317,0,0,0,0.0556,0.0547,0.0509,0.0442,0.0288,0.0149,0.0013,-0.0178,-0.0231,-0.0306,-0.0309,-0.0323,-0.0329,-0.0235,-0.0115,0,0,0,0,0.0513,0.0494,0.0435,0.0336,0.0195,0.0061,-0.0115,-0.0132,-0.0196,-0.0277,-0.0272,-0.0277,-0.0221,-0.0277,-0.0368,-0.0369,-0.0369,-0.037,-0.037,0.0494,0.0436,0.0348,0.0257,0.0157,-0.0001,-0.0063,-0.0099,-0.0164,-0.0117,-0.0185,-0.0021,-0.0073,-0.0127,-0.0127,-0.0126,-0.0126,-0.0126,-0.0126,0.0421,0.0367,0.03,0.0208,0.0113,0.0013,-0.0038,-0.0041,0.0003,-0.0054,-0.0001,-0.0157,-0.0118,-0.012,-0.0121,-0.0122,-0.0122,-0.0123,-0.0123,0.0373,0.0357,0.0311,0.0198,0.0111,0.0017,0.0034,0.0034,0.0052,0.0093,0.0071,0.0041,-0.0008,0.0143,0.0144,0.0144,0.0145,0.0145,0.0145,0.0355,0.0319,0.0255,0.0173,0.0119,0.0075,0.009,0.0133,0.0155,0.0139,0.0126,0.007,0.0061,0.001,0.0152,0.0151,0.015,0.015,0.0149,0.0339,0.0305,0.0218,0.0168,0.0102,0.0094,0.0134,0.0194,0.0277,0.0278,0.0181,0.0178,0.0148,0.0137,0.0086,0.0257,0.0256,0.0256,0,0.0316,0.0294,0.0176,0.0123,0.0103,0.0105,0.0174,0.0223,0.0242,0.0217,0.0277,0.0167,0.0163,0.0124,0.0114,0.0054,0,0,0,0.0292,0.0239,0.0168,0.0106,0.0099,0.0141,0.019,0.0205,0.0214,0.0252,0.0244,0.0247,0.0187,0.0174,0.012,0.0109,0.0024,0,0]},{"header":{"parameterUnit":"m.s-1","parameterCategory":2,"la1":30.2992,"la2":30.254,"lo1":-89.0895,"lo2":-89.0443,"dy":0.0025,"dx":0.0025,"nx":19,"ny":19,"refTime":"2026-04-24T21:00:00:Z","depth":"4","parameterNumber":3,"parameterNumberName":"V-component_of_CURRENTS"},"data":[0,0,0,-0.014,-0.014,-0.0124,-0.0124,0.0067,0.0069,0,0,0,0,0,0,0,0,0,0,0,-0.0104,-0.0104,-0.014,-0.014,-0.0124,-0.0124,0.0066,0.0069,0,0,0,0,0,0,0,0,0,0,0,-0.0105,-0.0104,-0.0103,-0.014,-0.0124,-0.0124,0.0066,0.0017,0,0,0,0,0,0,0,0,0,0,-0.0018,-0.0012,-0.0104,-0.0103,-0.014,-0.0124,-0.0124,0.0013,0.002,0.0102,0,0.0119,0,0.0076,0.0083,0.0084,0,0,0,-0.0119,-0.0018,-0.0029,-0.0103,-0.0141,-0.0125,-0.0125,0.0016,0.0024,0.0112,0.012,0.0125,0.0079,0.0085,0.0086,0.031,0.0311,0,0,-0.012,-0.0085,-0.0035,-0.0023,-0.0113,-0.0126,-0.0125,0.0019,0.0052,0.0121,0.0128,0.0082,0.0086,0.0088,0.0309,0.031,0,0,0,-0.0137,-0.0085,-0.0103,-0.0028,-0.0052,-0.0126,-0.0125,0.0046,0.0036,0.0129,0.0085,0.0088,0.009,0.0308,0.031,0.0331,0,0,0,-0.0136,-0.0098,-0.0103,-0.008,-0.0055,-0.0027,-0.0101,0.0027,0.004,0.0084,0.0088,0.0092,0.0307,0.0309,0.0329,0.0341,0,0,0,-0.011,-0.0096,-0.0091,-0.0078,-0.0089,-0.0032,-0.0033,0.0028,0.0013,0.0084,0.0093,0.0307,0.0309,0.0326,0.0337,0.0438,0,0,0,-0.0081,-0.008,-0.0089,-0.0078,-0.0089,-0.0062,-0.0035,0.0024,0.0088,0.0089,0.0308,0.031,0.0326,0.0335,0.0435,0.0302,0,0,0,-0.0081,-0.0078,-0.0075,-0.0086,-0.0055,-0.0065,0.0022,0.0121,0.0147,0.0274,0.0278,0.033,0.0337,0.0438,0.0417,0,0,0,0,-0.0078,-0.0059,-0.0054,-0.0025,-0.0015,0.0057,0.0116,0.015,0.0257,0.0186,0.0363,0.0368,0.0431,0.0344,0.0319,0.0319,0.0318,0.0318,0.0318,-0.004,-0.0029,0.002,0.0058,0.0099,0.017,0.0228,0.0301,0.0318,0.0366,0.041,0.0533,0.0442,0.0437,0.0437,0.0437,0.0437,0.0437,0.0437,-0.0012,0.0027,0.0101,0.0146,0.0233,0.0316,0.0393,0.0408,0.0508,0.0465,0.0526,0.0401,0.044,0.044,0.0439,0.0439,0.0439,0.0439,0.0438,0.0018,0.0045,0.0094,0.0204,0.032,0.0394,0.0505,0.0524,0.0554,0.0594,0.0565,0.0582,0.0556,0.0652,0.0652,0.0653,0.0653,0.0653,0.0654,0.0021,0.0078,0.0144,0.0254,0.0322,0.0414,0.0557,0.063,0.0676,0.0597,0.0631,0.0607,0.06,0.0571,0.0662,0.066,0.0659,0.0658,0.0658,0.0036,0.0067,0.0151,0.022,0.0355,0.0405,0.056,0.0675,0.0765,0.0752,0.0618,0.0617,0.0613,0.0607,0.0577,0.0673,0.0671,0.067,0,0.0041,0.0065,0.0169,0.0251,0.0331,0.0402,0.0504,0.0619,0.0652,0.0565,0.0761,0.0604,0.0603,0.0592,0.0585,0.0547,0,0,0,0.0055,0.0092,0.0156,0.0248,0.0318,0.0389,0.0522,0.0546,0.0577,0.0686,0.0637,0.0646,0.0746,0.0685,0.0679,0.067,0.0625,0,0]}]]